Regional Weather Roundup
Issued by NWS

Home | Current Version | Previous Version | Graphics & Text | Print | Product List | Glossary Off
Versions: 1 2 3 4 5 6 7 8 9 10 11 12 13 14 15 16 17 18 19 20 21 22 23 24 25 26 27 28 29 30 31 32 33 34 35 36 37 38 39 40 41 42 43 44 45 46 47 48 49 50

750
ASUS43 KTOP 110808
RWRKS

WEATHER ROUNDUP FOR KANSAS
NATIONAL WEATHER SERVICE GOODLAND KS
200 AM CST MON DEC 11 2017

NOTE:  "FAIR" INDICATES FEW OR NO CLOUDS BELOW 12,000 FEET WITH NO
SIGNIFICANT WEATHER AND/OR OBSTRUCTIONS TO VISIBILITY.

KSZ001>006-013>018-027>032-041>047-110900-
NORTHWEST KANSAS

CITY           SKY/WX    TMP DP  RH WIND       PRES   REMARKS
GOODLAND       CLOUDY    30   2  30 W7        30.24S
HAYS           CLEAR     35   8  32 W10       30.17F WCI  27
HILL CITY      CLEAR     36   9  32 W7        30.18F
RUSSELL        CLEAR     33  13  43 W12       30.14F WCI  24
$$

KSZ061>065-074>080-084>089-110900-
SOUTHWEST KANSAS

CITY           SKY/WX    TMP DP  RH WIND       PRES   REMARKS
DODGE CITY     CLOUDY    41   7  24 W15       30.22F
ELKHART        CLOUDY    44  13  28 W13       30.27S
GARDEN CITY    CLOUDY    30   6  36 NW12      30.23F WCI  20
GREAT BEND     CLEAR     36  10  34 W10       30.18F WCI  28
LIBERAL        CLEAR     37   6  27 W14       30.25F WCI  28
PRATT          CLEAR     36   8  31 W9        30.20F
$$

KSZ066>073-081>083-090>101-110900-
SOUTHEAST KANSAS

CITY           SKY/WX    TMP DP  RH WIND       PRES   REMARKS
CHANUTE        CLEAR     39  20  46 SW5       30.14F
COFFEYVILLE    CLEAR     33  23  66 S7        30.17F
HUTCHINSON     CLEAR     33  14  45 W5        30.16F
MEDICINE LODGE   N/A     35  15  44 N6        30.20F
NEWTON         CLEAR     39  15  37 SW8       30.15F
PARSONS        CLEAR     26  22  84 CALM      30.17F
WICHITA INTL   CLEAR     37  16  42 W7        30.16F
WICHITA JABRA  CLEAR     42  16  34 W8        30.16F
WICHITA MCCONL CLEAR     45  13  27 SW5       30.16F
WINFIELD       CLEAR     36  19  50 CALM      30.18F
$$

KSZ007>012-019>026-033>040-048>060-102>105-110900-
NORTHEAST KANSAS

CITY           SKY/WX    TMP DP  RH WIND       PRES   REMARKS
CONCORDIA      CLEAR     41  14  33 W13       30.08F
EMPORIA        CLEAR     45  17  32 W8        30.11F
LAWRENCE       CLEAR     23  20  88 NE3       30.07F
MANHATTAN      CLEAR     39  17  41 SW12      30.09F WCI  32
MARYSVILLE     CLOUDY    34  18  51 SW6       30.05F
OLATHE IND     CLEAR     32  22  66 S7        30.09F
OLATHE EXE     CLEAR     33  22  63 SW7       30.08F
SALINA         CLEAR     43  14  31 VRB3      30.13F
TOPEKA BILLARD CLEAR     25  22  88 CALM      30.07F
TOPEKA FORBES  CLEAR     36  19  50 SW3       30.07F
$$




USA.gov is the U.S. government's official web portal to all federal, state and local government web resources and services.